Weather History for Kaiser, MO

Change the Weather History Date:

Sunday, March 30, 2014

  Actual Average Record
Temperature  
Mean Temperature 48 °F -  
Max Temperature 69 °F 60 °F 78 °F (1998)
Min Temperature 28 °F 39 °F 24 °F (2003)
Degree Days  
Heating Degree Days 16    
Moisture  
Dew Point 30 °F    
Average Humidity 51    
Maximum Humidity 86    
Minimum Humidity 21    
Precipitation  
Precipitation 0.00 in - - ()
Sea Level Pressure  
Sea Level Pressure 30.13 in    
Wind  
Wind Speed 6 mph (SSE)    
Max Wind Speed 14 mph    
Max Gust Speed 21 mph    
Visibility 10 miles    
Events      
Averages and records for this station are not official NWS values.
T = Trace of Precipitation, MM = Missing Value Source: NWS Daily Summary

Daily Weather History Graph

Daily Weather History Graph

Search for Another Location

Airport:

Trip Planner

Search our weather history database for the weather conditions in past years. The results will help you decide how hot, cold, wet, or windy it might be!

Date:

Astronomy

Mar. 30, 2014 Rise Set
Actual Time 6:58 AM CDT 7:31 PM CDT
Civil Twilight 6:31 AM CDT 7:58 PM CDT
Nautical Twilight 6:00 AM CDT 8:29 PM CDT
Astronomical Twilight 5:28 AM CDT 9:01 PM CDT
Moon 6:44 AM CDT (3/30) 7:44 PM CDT (3/30)
Length of Visible Light 13h 26m
Length of Day
12h 33m
Waning Crescent, 0% of the Moon is Illuminated
Mar 30
Waning Crescent
Mar 30
New
Apr 7
First Quarter
Apr 15
Full
Apr 22
Last Quarter

Hourly Weather History & Observations

Time (CDT) Temp. Windchill Dew Point Humidity Pressure Visibility Wind Dir Wind Speed Gust Speed Precip Events Conditions
12:15 AM 35.6 °F - 28.4 °F 75% 30.27 in 10.0 mi Calm Calm - N/A   Clear
12:35 AM 35.6 °F - 28.4 °F 75% 30.27 in 10.0 mi Calm Calm - N/A   Clear
12:55 AM 33.8 °F 30.8 °F 28.4 °F 81% 30.26 in 10.0 mi ESE 3.5 mph - N/A   Clear
1:15 AM 33.8 °F - 28.4 °F 81% 30.26 in 10.0 mi Calm Calm - N/A   Clear
1:35 AM 33.8 °F - 28.4 °F 81% 30.27 in 10.0 mi Calm Calm - N/A   Clear
1:55 AM 33.8 °F 30.8 °F 26.6 °F 75% 30.27 in 10.0 mi East 3.5 mph - N/A   Clear
2:15 AM 30.2 °F 26.7 °F 26.6 °F 86% 30.26 in 10.0 mi ESE 3.5 mph - N/A   Clear
2:35 AM 30.2 °F - 26.6 °F 86% 30.25 in 10.0 mi Calm Calm - N/A   Clear
2:55 AM 32.0 °F 28.7 °F 26.6 °F 80% 30.25 in 10.0 mi ESE 3.5 mph - N/A   Clear
3:15 AM 30.2 °F - 26.6 °F 86% 30.24 in 10.0 mi Calm Calm - N/A   Clear
3:35 AM 28.4 °F 23.3 °F 24.8 °F 86% 30.23 in 9.0 mi East 4.6 mph - N/A   Clear
3:55 AM 30.2 °F 23.4 °F 26.6 °F 86% 30.22 in 10.0 mi SE 6.9 mph - N/A   Clear
4:15 AM 30.2 °F 25.4 °F 26.6 °F 86% 30.22 in 10.0 mi SSE 4.6 mph - N/A   Clear
4:35 AM 32.0 °F 28.7 °F 26.6 °F 80% 30.21 in 10.0 mi SSE 3.5 mph - N/A   Clear
4:55 AM 30.2 °F 24.3 °F 26.6 °F 86% 30.20 in 10.0 mi SSE 5.8 mph - N/A   Clear
5:15 AM 32.0 °F 26.4 °F 26.6 °F 80% 30.20 in 10.0 mi SSE 5.8 mph - N/A   Clear
5:35 AM 30.2 °F 24.3 °F 26.6 °F 86% 30.19 in 10.0 mi SE 5.8 mph - N/A   Clear
5:55 AM 30.2 °F 24.3 °F 26.6 °F 86% 30.19 in 10.0 mi SSE 5.8 mph - N/A   Clear
6:15 AM 32.0 °F 24.8 °F 26.6 °F 80% 30.19 in 10.0 mi SSE 8.1 mph - N/A   Clear
6:35 AM 33.8 °F 27.0 °F 26.6 °F 75% 30.20 in 10.0 mi SSE 8.1 mph - N/A   Clear
6:55 AM 33.8 °F 27.0 °F 26.6 °F 75% 30.20 in 10.0 mi SSE 8.1 mph - N/A   Clear
7:15 AM 33.8 °F 27.7 °F 26.6 °F 75% 30.21 in 10.0 mi SSE 6.9 mph - N/A   Clear
7:35 AM 33.8 °F 28.6 °F 26.6 °F 75% 30.22 in 10.0 mi SSE 5.8 mph - N/A   Clear
7:55 AM 35.6 °F 30.7 °F 28.4 °F 75% 30.23 in 10.0 mi SE 5.8 mph - N/A   Clear
8:15 AM 37.4 °F 31.4 °F 28.4 °F 70% 30.23 in 10.0 mi SSE 8.1 mph - N/A   Clear
8:35 AM 37.4 °F 32.1 °F 28.4 °F 70% 30.24 in 10.0 mi SSE 6.9 mph - N/A   Clear
8:55 AM 39.2 °F 35.0 °F 28.4 °F 65% 30.24 in 10.0 mi SE 5.8 mph - N/A   Clear
9:15 AM 42.8 °F 39.3 °F 30.2 °F 61% 30.23 in 10.0 mi SSE 5.8 mph - N/A   Clear
9:35 AM 44.6 °F 40.2 °F 32.0 °F 61% 30.22 in 10.0 mi South 8.1 mph - N/A   Clear
9:55 AM 48.2 °F - 33.8 °F 58% 30.22 in 10.0 mi South 4.6 mph - N/A   Clear
10:15 AM 50.0 °F - 33.8 °F 54% 30.20 in 10.0 mi SSE 9.2 mph - N/A   Clear
10:35 AM 51.8 °F - 33.8 °F 50% 30.20 in 10.0 mi South 8.1 mph - N/A   Clear
10:55 AM 53.6 °F - 33.8 °F 47% 30.20 in 10.0 mi SSE 11.5 mph 16.1 mph N/A   Clear
11:15 AM 55.4 °F - 33.8 °F 44% 30.19 in 10.0 mi South 9.2 mph - N/A   Clear
11:35 AM 57.2 °F - 33.8 °F 41% 30.19 in 10.0 mi South 11.5 mph - N/A   Clear
11:55 AM 60.8 °F - 33.8 °F 36% 30.18 in 10.0 mi SSW 9.2 mph - N/A   Clear
12:15 PM 60.8 °F - 33.8 °F 36% 30.17 in 10.0 mi SE 10.4 mph 16.1 mph N/A   Clear
12:35 PM 62.6 °F - 33.8 °F 34% 30.16 in 10.0 mi South 9.2 mph - N/A   Clear
12:55 PM 64.4 °F - 33.8 °F 32% 30.15 in 10.0 mi South 10.4 mph - N/A   Clear
1:15 PM 64.4 °F - 33.8 °F 32% 30.14 in 10.0 mi South 12.7 mph 18.4 mph N/A   Clear
1:35 PM 66.2 °F - 33.8 °F 30% 30.13 in 10.0 mi South 11.5 mph 17.3 mph N/A   Clear
1:55 PM 66.2 °F - 32.0 °F 28% 30.12 in 10.0 mi SSW 12.7 mph - N/A   Clear
2:15 PM 68.0 °F - 32.0 °F 26% 30.11 in 10.0 mi SSW 9.2 mph 18.4 mph N/A   Clear
2:35 PM 68.0 °F - 30.2 °F 24% 30.09 in 10.0 mi South 13.8 mph 18.4 mph N/A   Clear
2:55 PM 69.8 °F - 30.2 °F 23% 30.08 in 10.0 mi SSW 10.4 mph - N/A   Clear
3:15 PM 69.8 °F - 30.2 °F 23% 30.08 in 10.0 mi South 12.7 mph 18.4 mph N/A   Clear
3:35 PM 69.8 °F - 28.4 °F 21% 30.06 in 10.0 mi South 12.7 mph 17.3 mph N/A   Clear
3:55 PM 69.8 °F - 28.4 °F 21% 30.06 in 10.0 mi SSW 8.1 mph 16.1 mph N/A   Clear
4:15 PM 69.8 °F - 28.4 °F 21% 30.05 in 10.0 mi South 9.2 mph 17.3 mph N/A   Clear
4:35 PM 69.8 °F - 30.2 °F 23% 30.04 in 10.0 mi SSE 8.1 mph - N/A   Clear
4:55 PM 69.8 °F - 32.0 °F 25% 30.03 in 10.0 mi South 13.8 mph 19.6 mph N/A   Clear
5:15 PM 69.8 °F - 30.2 °F 23% 30.01 in 10.0 mi SSE 11.5 mph 20.7 mph N/A   Clear
5:35 PM 69.8 °F - 30.2 °F 23% 30.01 in 10.0 mi South 12.7 mph 20.7 mph N/A   Clear
5:55 PM 68.0 °F - 28.4 °F 23% 30.01 in 10.0 mi SSE 12.7 mph 16.1 mph N/A   Clear
6:15 PM 68.0 °F - 30.2 °F 24% 30.00 in 10.0 mi SSE 9.2 mph 17.3 mph N/A   Clear
6:35 PM 66.2 °F - 30.2 °F 26% 30.00 in 10.0 mi South 13.8 mph 18.4 mph N/A   Clear
6:55 PM 66.2 °F - 30.2 °F 26% 29.99 in 10.0 mi South 11.5 mph - N/A   Clear
7:15 PM 64.4 °F - 30.2 °F 28% 29.99 in 10.0 mi SSE 5.8 mph - N/A   Clear
7:35 PM 64.4 °F - 30.2 °F 28% 30.00 in 10.0 mi SSE 5.8 mph - N/A   Clear
7:55 PM 62.6 °F - 30.2 °F 30% 30.00 in 10.0 mi SSE 9.2 mph - N/A   Clear
8:15 PM 62.6 °F - 30.2 °F 30% 29.99 in 10.0 mi South 10.4 mph - N/A   Clear
8:35 PM 62.6 °F - 30.2 °F 30% 29.99 in 10.0 mi SSE 6.9 mph 17.3 mph N/A   Clear
8:55 PM 60.8 °F - 30.2 °F 31% 29.98 in 10.0 mi SSE 11.5 mph 18.4 mph N/A   Clear
9:15 PM 60.8 °F - 30.2 °F 31% 29.98 in 10.0 mi SSE 11.5 mph 16.1 mph N/A   Clear
9:35 PM 60.8 °F - 30.2 °F 31% 29.98 in 10.0 mi SSE 10.4 mph 18.4 mph N/A   Clear
9:55 PM 60.8 °F - 32.0 °F 34% 29.98 in 10.0 mi SSE 9.2 mph 17.3 mph N/A   Clear
10:15 PM 59.0 °F - 32.0 °F 36% 29.97 in 10.0 mi SSE 9.2 mph 16.1 mph N/A   Clear
10:35 PM 57.2 °F - 33.8 °F 41% 29.97 in 10.0 mi SSE 11.5 mph 18.4 mph N/A   Clear
10:55 PM 57.2 °F - 33.8 °F 41% 29.97 in 10.0 mi SSE 8.1 mph 20.7 mph N/A   Clear
11:15 PM 57.2 °F - 33.8 °F 41% 29.98 in 10.0 mi SSE 8.1 mph 18.4 mph N/A   Clear
11:35 PM 57.2 °F - 35.6 °F 44% 29.98 in 10.0 mi SSE 8.1 mph - N/A   Clear
11:55 PM 57.2 °F - 35.6 °F 44% 29.97 in 10.0 mi SSE 9.2 mph - N/A   Clear